Weather History for Glens Falls, NY

Change the Weather History Date:

Monday, February 18, 2013

  Actual Average Record
Temperature  
Mean Temperature 17 °F 22 °F  
Max Temperature 31 °F 34 °F 60 °F (1981)
Min Temperature 2 °F 10 °F -29 °F (1973)
Degree Days  
Heating Degree Days 48 43  
Month to date heating degree days 805 810  
Since 1 July heating degree days 4750 5206  
Cooling Degree Days 0 0  
Month to date cooling degree days 0 0  
Year to date cooling degree days 0 0  
Moisture  
Dew Point -2 °F    
Average Humidity 48    
Maximum Humidity 76    
Minimum Humidity 19    
Precipitation  
Precipitation 0.00 in 0.07 in 1.48 in (1976)
Month to date precipitation 0.20 1.32  
Year to date precipitation 1.48 4.18  
Sea Level Pressure  
Sea Level Pressure 30.14 in    
Wind  
Wind Speed 3 mph (NW)    
Max Wind Speed 13 mph    
Max Gust Speed 16 mph    
Visibility 10 miles    
Events      
T = Trace of Precipitation, MM = Missing Value Source: NWS Daily Summary

Daily Weather History Graph

Daily Weather History Graph

Search for Another Location

Airport:

Trip Planner

Search our weather history database for the weather conditions in past years. The results will help you decide how hot, cold, wet, or windy it might be!

Date:

Astronomy

Feb. 18, 2013 Rise Set
Actual Time 6:47 AM EST 5:29 PM EST
Civil Twilight 6:18 AM EST 5:58 PM EST
Nautical Twilight 5:45 AM EST 6:31 PM EST
Astronomical Twilight 5:12 AM EST 7:05 PM EST
Moon 11:08 AM EST (2/18) 1:29 AM EST (2/18)
Length of Visible Light 11h 39m
Length of Day
10h 41m
First Quarter, 58% of the Moon is Illuminated
Feb 18
First Quarter
Feb 25
Full
Mar 4
Last Quarter
Mar 11
New
Mar 19
First Quarter

Hourly Weather History & Observations

Time (EST) Temp. Windchill Dew Point Humidity Pressure Visibility Wind Dir Wind Speed Gust Speed Precip Events Conditions
12:53 AM 10.0 °F -0.9 °F -4.0 °F 53% 29.97 in 10.0 mi WNW 6.9 mph - N/A   Clear
1:53 AM 10.0 °F -0.9 °F -4.0 °F 53% 30.00 in 10.0 mi West 6.9 mph - N/A   Clear
2:53 AM 5.0 °F - -2.0 °F 73% 30.03 in 10.0 mi Calm Calm - N/A   Clear
3:53 AM 6.1 °F - -2.9 °F 67% 30.05 in 10.0 mi Calm Calm - N/A   Clear
4:53 AM 7.0 °F -4.5 °F -5.1 °F 58% 30.08 in 10.0 mi NNW 6.9 mph - N/A   Clear
5:53 AM 3.0 °F -4.4 °F -4.0 °F 73% 30.11 in 10.0 mi South 3.5 mph - N/A   Clear
6:53 AM 6.8 °F -4.8 °F -5.8 °F 56% 30.11 in 10.0 mi North 6.9 mph - N/A   Clear
7:53 AM 8.1 °F 1.4 °F -4.0 °F 58% 30.18 in 10.0 mi NNE 3.5 mph - N/A   Clear
8:53 AM 10.9 °F 2.9 °F -2.0 °F 56% 30.20 in 10.0 mi South 4.6 mph - N/A   Clear
9:53 AM 15.1 °F - -2.9 °F 45% 30.19 in 10.0 mi Calm Calm - N/A   Clear
10:53 AM 18.0 °F 9.8 °F -6.0 °F 35% 30.19 in 10.0 mi SW 5.8 mph - N/A   Clear
11:53 AM 21.9 °F 14.5 °F -8.0 °F 27% 30.18 in 10.0 mi NE 5.8 mph - N/A   Clear
12:53 PM 24.1 °F - -8.0 °F 24% 30.16 in 10.0 mi Calm Calm - N/A   Clear
1:53 PM 27.0 °F 21.6 °F -2.0 °F 29% 30.14 in 10.0 mi SSE 4.6 mph - N/A   Clear
2:53 PM 28.0 °F 24.2 °F -4.0 °F 25% 30.15 in 10.0 mi SE 3.5 mph - N/A   Clear
3:53 PM 30.0 °F 26.5 °F -5.1 °F 22% 30.15 in 10.0 mi NE 3.5 mph - N/A   Clear
4:53 PM 30.0 °F 24.1 °F -7.1 °F 20% 30.16 in 10.0 mi West 5.8 mph - N/A   Clear
5:53 PM 25.0 °F - -2.9 °F 30% 30.18 in 10.0 mi Calm Calm - N/A   Clear
6:53 PM 23.0 °F 15.8 °F 1.0 °F 39% 30.19 in 10.0 mi WNW 5.8 mph - N/A   Clear
7:53 PM 18.0 °F - 5.0 °F 57% 30.19 in 10.0 mi Calm Calm - N/A   Clear
8:53 PM 18.0 °F - 6.1 °F 60% 30.18 in 10.0 mi Calm Calm - N/A   Clear
9:53 PM 17.1 °F - 5.0 °F 59% 30.18 in 10.0 mi Calm Calm - N/A   Clear
10:53 PM 16.0 °F - 7.0 °F 68% 30.16 in 10.0 mi Calm Calm - N/A   Clear
11:53 PM 15.1 °F - 8.1 °F 74% 30.18 in 10.0 mi Calm Calm - N/A   Clear